Regional Weather Roundup
Issued by NWS

Home | Current Version | Previous Version | Graphics & Text | Print | Product List | Glossary On
Versions: 1 2 3 4 5 6 7 8 9 10 11 12 13 14 15 16 17 18 19 20 21 22 23 24 25 26 27 28 29 30 31 32 33 34 35 36 37 38 39 40 41 42 43 44 45 46 47 48 49 50
804
ASUS43 KMPX 221910
RWRMN
WEATHER ROUNDUP FOR MINNESOTA
NATIONAL WEATHER SERVICE TWIN CITIES/CHANHASSEN MN
200 PM CDT SUN APR 22 2018


NOTE: "FAIR" INDICATES FEW OR NO CLOUDS BELOW 12,000 FEET WITH NO
SIGNIFICANT WEATHER AND/OR OBSTRUCTIONS TO VISIBILITY. N/A MEANS
CURRENT SKY AND/OR WEATHER CONDITIONS ARE NOT AVAILABLE.

MNZ060>063-068>070-222000-
   Twin Cities Metro

CITY           SKY/WX    TMP DP  RH WIND       PRES   REMARKS
TWIN CITIES    FAIR      61  33  35 E6        30.31F
ST PAUL        FAIR      60  31  33 VRB3      30.32F
BLAINE         MOSUNNY   63  30  29 E6        30.30F
LAKEVILLE      FAIR      59  39  47 SE6       30.31F
EDEN PRAIRIE   FAIR      60  33  36 S8        30.30F
SOUTH ST PAUL  FAIR      60  31  33 CALM      30.31F
LAKE ELMO      FAIR      59  34  38 S3        30.32F
$$
MNZ001>005-007-008-013>017-022>024-027-028-222000-
   Northwest Minnesota

CITY           SKY/WX    TMP DP  RH WIND       PRES   REMARKS
BEMIDJI        FAIR      61  28  29 SW15G23   30.22S
HALLOCK        FAIR      63  36  36 SW23      30.13F
ROSEAU         FAIR      61  41  48 SW20G32   30.16F
WARROAD        FAIR      61  37  41 SW21G28   30.17F
THIEF RVR FALL FAIR      59  38  45 SW24      30.19
CROOKSTON      FAIR      59  43  55 SW21G26   30.20F
FOSSTON        FAIR      61  36  39 S17G25    30.21F
DETROIT LAKES  FAIR      59  32  36 S14G20    30.24F
MOORHEAD       FAIR      61  37  41 S15       30.23F
PARK RAPIDS    FAIR      61  32  33 SW15G23   30.24F
MAHNOMEN       FAIR      61  35  37 SW17G26   30.21F
$$
MNZ006-009>011-018-025>026-222000-
   North Central Minnesota

CITY           SKY/WX    TMP DP  RH WIND       PRES   REMARKS
BAUDETTE       FAIR      61  32  33 S16G24    30.18F
FLAG ISLAND    FAIR      50  30  46 S16       30.14F
INTL FALLS     FAIR      60  31  33 SW15G22   30.19F
WASKISH        PTSUNNY   57  30  35 W10       30.21F
BIG FORK       FAIR      61  34  36 S7        30.24F
LONGVILLE      FAIR      63  30  29 SW8G16    30.25F
GRAND RAPIDS   FAIR      57  29  34 S10       30.28F
CRANE LAKE     FAIR      57  27  30 SW6       30.25F
ORR            FAIR      59  25  27 S8G20     30.23F
COOK           FAIR      59  28  31 SW12G20   30.26F
WALKER         FAIR      60  31  32 SW13G21   30.24S
$$
MNZ012-019>021-037-222000-
   Northeast Minnesota

CITY           SKY/WX    TMP DP  RH WIND       PRES   REMARKS
DULUTH         FAIR      59  31  34 SW13G20   30.29F
ELY            FAIR      57  21  24 S8        30.26F
HIBBING        FAIR      58  28  32 SW10      30.26F
EVELETH        FAIR      59  28  30 SW14      30.27F
DULUTH HARBOR  FAIR      43  34  70 E12       30.31F
TWO HARBORS    FAIR      63  37  39 S13       30.28F
SILVER BAY     FAIR      57  25  28 S8G16     30.28F
GRAND MARAIS     N/A     43  30  60 E3        30.33F
G MARAIS ARPRT FAIR      52  12  20 S7        30.31S
$$
MNZ029>031-032-039>041-046>048-054>057-064-222000-
   West Central Minnesota

CITY           SKY/WX    TMP DP  RH WIND       PRES   REMARKS
FERGUS FALLS   FAIR      61  36  39 SW15      30.23F
WHEATON        SUNNY     59  34  38 S12G18    30.27F
MORRIS         SUNNY     61  39  44 S16       30.26F
ALEXANDRIA     FAIR      62  34  35 S16       30.28F
ELBOW LAKE     FAIR      60  34  37 S20       30.26F
WADENA         FAIR      61  34  36 S14G22    30.25F
GLENWOOD       FAIR      61  34  36 S10G17    30.28F
APPLETON       SUNNY     61  34  36 S12       30.27F
BENSON         SUNNY     61  37  41 SW13      30.29F
ORTONVILLE     SUNNY     61  36  39 SE12G18   30.26F
MADISON        SUNNY     59  41  51 S13       30.28F
WILLMAR        FAIR      59  39  47 SE8       30.31F
$$
MNZ033>034-036-042>043-049>051-058-059-222000-
   Central Minnesota

CITY           SKY/WX    TMP DP  RH WIND       PRES   REMARKS
ST CLOUD       FAIR      60  32  34 SE9G16    30.29F
SAUK CENTRE    FAIR      59  34  38 S12       30.28F
PAYNESVILLE    FAIR      59  36  42 S7        30.30F
AITKIN         FAIR      57  30  35 S12       30.28F
PINE RIVER     FAIR      57  34  41 SW10G20   30.29F
BRAINERD       FAIR      62  32  32 S10G18    30.28F
STAPLES        FAIR      57  30  35 S13G20    30.27F
LONG PRAIRIE   FAIR      61  34  36 SE12G17   30.29F
LITTLE FALLS   FAIR      59  23  25 S9        30.29F
LITCHFIELD     FAIR      61  36  39 SE7       30.30F
BUFFALO        FAIR      59  33  37 SE5       30.31F
MAPLE LAKE     FAIR      60  36  41 S7        30.31F
HUTCHINSON     FAIR      58  39  49 SE8       30.31F
$$
MNZ037-044-045-052-053-222000-
   East Central Minnesota

CITY           SKY/WX    TMP DP  RH WIND       PRES   REMARKS
PRINCETON      FAIR      63  30  29 SE8       30.30F
MORA           FAIR      55  30  38 S6        30.32F
CAMBRIDGE      FAIR      61  37  41 CALM      30.30F
RUSH CITY      FAIR      59  32  36 S6        30.31F
MOOSE LAKE     FAIR      59  32  36 SW9       30.29F
HINCKLEY       FAIR      59  32  36 S8        30.31F
CLOQUET        FAIR      59  23  25 SW9       30.30F
MCGREGOR       FAIR      57  28  33 SW10      30.29F
$$
MNZ071>073-080-081-089-090-097-098-222000-
   Southwest Minnesota

CITY           SKY/WX    TMP DP  RH WIND       PRES   REMARKS
MONTEVIDEO     SUNNY     59  37  44 S8        30.30S
GRANITE FALLS  SUNNY     58  42  56 SE13      30.31F
CANBY          SUNNY     56  37  47 SE7       30.30F
MARSHALL       SUNNY     53  38  56 S12       30.30F
REDWOOD FALLS  SUNNY     57  38  48 SE14      30.30F
OLIVIA         SUNNY     59  41  51 S9        30.29F
PIPESTONE      SUNNY    N/A N/A N/A SE13      30.28F
WINDOM         SUNNY     52  30  43 SE7       30.32S
WORTHINGTON    SUNNY     53  35  50 E10       30.30F
JACKSON        SUNNY     45  37  76 NE6       30.32F
TRACY          SUNNY     52  41  65 SE10      30.30F
SLAYTON        SUNNY     48  38  69 SE10      30.31S
$$
MNZ065>067-074>077-082>085-091>093-222000-
   South Central Minnesota

CITY           SKY/WX    TMP DP  RH WIND       PRES   REMARKS
MANKATO        FAIR      57  38  48 SE10      30.31F
NEW ULM        SUNNY     55  36  47 S6        30.31F
ST JAMES       SUNNY     50  37  62 E6        30.34S
FAIRMONT       MOSUNNY   49  36  61 NE7       30.32F
GLENCOE        FAIR      59  37  42 SE3       30.30F
OWATONNA       FAIR      57  39  51 E9        30.31F
WASECA         FAIR      54  37  54 E10       30.33S
ALBERT LEA     FAIR      54  28  37 E12       30.31S
$$
MNZ078>079-086>088-094>096-222000-
   Southeast Minnesota

CITY           SKY/WX    TMP DP  RH WIND       PRES   REMARKS
ROCHESTER      FAIR      56  35  45 SE9       30.33F
RED WING       FAIR      63  21  20 SE7       30.31S
STANTON        FAIR      60  36  40 E3        30.31S
DODGE CENTER   FAIR      55  36  47 E8        30.32F
WINONA         FAIR      61  30  31 SE7       30.30F
AUSTIN         FAIR      55  36  47 E10       30.31S
PRESTON        FAIR      57  30  36 E12       30.31F
$$
ABBREVIATIONS USED IN REMARKS
   TC - TEMPERATURES IN CELSIUS
  WCI - WIND CHILL INDEX
   HX - HEAT INDEX
  VSB - VISIBILITY
$$




USA.gov is the U.S. government's official web portal to all federal, state and local government web resources and services.